Vertical_Velocity
2 -0 2 0 1 2 0 0 -3 -4 -3 -2 -1 0 -4 -2 -1 -3 -2 -4 -3 -2 0 1 0 -1 0 1 -0 -1 1 2 1 3 1 0 5 -0 2 2 2 1 2
1 -0 -2 -1 -0 2 2 1 1 -5 -4 -5 -4 -3 -2 -2 -2 -2 -3 -2 -5 -5 -3 -2 -2 -1 -1 0 0 2 2 4 3 1 -0 2 2 1 4 2 0 -1 2
-1 2 -1 2 -1 -3 -2 -0 1 -1 -3 -3 -3 -3 -3 -2 -1 -0 -1 -1 -1 -0 -5 -5 -3 -3 -1 -0 1 2 1 3 4 2 -1 7 0 -2 -2 -1 2 -0 3
3 1 2 1 3 3 -0 -0 -0 0 2 2 1 -1 -3 -2 -3 -2 -1 -0 -0 -1 -1 -1 -2 -3 -2 -1 1 2 2 3 5 -2 0 -2 2 1 1 6 0 -1 7
-1 2 0 2 3 3 4 2 -2 -2 1 1 1 2 -1 -2 -2 -2 -1 -1 -1 -1 -1 -3 -3 -1 -2 -1 1 3 3 3 1 -0 8 5 -1 -2 -2 5 3 -0 -5
-10 2 4 0 -0 1 4 6 5 3 -1 2 2 -1 0 -1 -0 -2 -2 -3 0 -0 -1 -1 -2 -1 -1 -0 3 3 2 4 4 -2 8 -9 18 3 -13 -1 8 6 3
-2 -4 2 4 1 -1 -1 -0 3 4 2 -1 1 1 -1 0 0 0 -2 -1 -1 -2 -0 -0 -3 -3 -2 -0 -0 2 4 2 4 -5 -2 -9 -2 -1 -23 -4 -8 9 -12
-5 -0 -2 3 2 2 2 1 1 1 3 4 1 -0 0 -1 0 -1 -2 -1 -2 -3 -2 -1 -1 -5 -2 0 2 1 2 4 5 -3 8 -3 1 4 -13 -10 -3 -1 0
3 -1 0 0 2 3 0 -1 0 1 1 1 -1 1 1 -1 -1 -2 -2 2 0 -4 -3 -3 -4 -3 -5 -1 3 3 -2 -2 5 4 -2 6 -1 -5 -5 -8 -1 -5 14
-5 -1 -2 -0 2 -0 3 2 -0 0 1 -0 -2 -1 1 2 -0 -1 -1 -1 -0 -2 -2 -4 -2 -3 -5 -1 1 2 1 2 0 8 -2 -2 0 2 4 4 -5 4 13
-7 -7 2 3 3 4 3 2 2 2 2 -0 -0 -0 -2 1 -1 -1 0 -1 -2 0 -0 0 -6 -5 -5 -3 2 2 3 1 3 3 -1 1 7 -2 -16 8 4 3 -4
-0 -5 -1 -3 -2 3 1 2 1 1 1 2 0 1 0 1 1 -1 -2 -1 -1 -3 0 -2 -3 -4 -4 -1 -1 2 5 3 -0 4 1 4 -0 11 4 3 10 1 -0
3 -3 -3 -6 -2 -1 3 1 5 2 3 2 2 1 1 -0 1 0 -2 -3 -2 -2 -2 -1 -1 -4 -1 -4 -3 -0 1 3 1 2 2 6 -4 6 3 4 1 1 4
14 2 -5 -2 -7 -5 -0 -3 2 1 3 3 2 4 -1 3 -1 -1 -1 -1 -2 -1 -1 -2 -1 -2 -3 -2 -3 0 0 3 5 0 4 -2 3 -2 1 -1 3 4 3
4 1 3 -5 2 1 -6 -5 3 3 3 1 -1 -1 3 -3 1 2 1 1 2 -1 -1 -0 -3 -2 -2 -2 -1 -5 -1 4 -0 2 3 3 7 0 -3 -2 0 2 -2
5 8 3 -4 -4 0 2 1 -4 6 3 5 1 -3 -9 2 1 -1 -0 -2 -1 -1 4 1 1 -2 -2 -4 0 -2 -1 -2 3 -1 1 2 0 1 5 -0 0 3 2
-3 5 2 -4 1 -2 -4 2 3 7 -2 2 6 1 15 10 7 -3 1 -1 0 2 1 5 -1 -3 -1 -1 -2 1 -1 1 1 1 -3 3 -2 -2 1 -2 -5 3 1
-3 -6 -5 -4 6 7 -4 -1 2 4 -1 7 2 9 1 0 -9 2 3 0 2 -1 2 -0 4 -2 3 -4 -6 -4 -4 -4 0 0 -5 -3 0 -4 1 -2 -2 -4 5
-2 -4 -6 -1 2 10 8 -2 -4 -1 -1 -2 0 8 16 2 -0 12 1 2 1 -4 -2 -1 -2 -1 0 -2 -1 -6 -8 -5 -1 -0 -5 -2 -1 -1 -0 -3 -1 -0 -2
-11 0 7 3 -2 2 4 3 0 -2 -1 0 -3 -6 -3 6 -1 10 13 -1 0 -4 -1 -2 -1 -2 6 8 8 -0 2 -4 -3 -0 -0 -1 1 -5 -2 2 -6 -0 -3
-9 2 -4 -1 -3 -1 -1 4 2 0 -2 -3 -3 -2 7 7 -15 -10 2 13 8 1 1 -1 13 5 5 3 7 6 -1 1 -6 -7 -5 1 -1 5 -3 2 -2 -0 1
-5 -1 1 -1 -1 -3 -0 1 1 3 4 3 3 0 -1 1 1 -5 -5 4 3 11 18 9 24 15 -2 2 14 -1 6 5 -5 -2 -1 -2 -1 3 -3 -2 -1 -2 2
-3 -4 1 0 1 1 0 -1 -1 -4 -4 -3 1 2 2 1 5 2 -0 -2 -0 13 4 12 18 26 148 26 13 20 2 -1 5 2 -1 -3 1 1 -5 0 -1 -3 4
2 -3 -3 2 -0 2 2 -0 -4 1 0 -3 -4 -4 -4 3 0 3 4 6 -4 1 9 8 17 27 -32 -50 12 7 7 4 -2 1 -6 -6 2 3 -3 2 -3 -7 -1
-5 -11 -1 3 2 2 -1 -3 -2 -0 -4 -1 -2 -6 -3 3 -1 3 -0 3 -0 2 -2 1 4 -6 -6 -7 -8 -41 14 -6 2 2 -7 -3 -3 10 -10 1 -2 -2 -7
-2 -10 -3 1 5 -1 -1 -4 -2 -4 -4 0 -2 -8 0 0 -0 1 4 -0 -4 2 11 5 10 9 1 -2 2 -8 2 -16 7 7 5 -9 4 10 -7 -5 2 -2 -5
Height
3158 3158 3159 3160 3162 3163 3164 3164 3165 3165 3166 3166 3165 3165 3165 3165 3164 3164 3164 3164 3164 3166 3166 3167 3167 3168 3168 3167 3168 3168 3169 3170 3171 3172 3172 3173 3173 3174 3175 3176 3176 3176 3176
3155 3156 3157 3159 3160 3161 3162 3163 3163 3164 3165 3165 3165 3165 3165 3164 3164 3164 3164 3164 3165 3165 3165 3166 3166 3167 3167 3167 3168 3168 3169 3170 3170 3171 3173 3173 3174 3175 3176 3176 3176 3177 3176
3151 3154 3155 3156 3157 3159 3160 3161 3162 3163 3163 3164 3164 3164 3164 3164 3163 3163 3163 3163 3164 3164 3164 3164 3165 3165 3166 3167 3168 3168 3169 3169 3169 3171 3173 3173 3172 3174 3175 3176 3177 3177 3177
3150 3152 3153 3154 3155 3156 3157 3158 3159 3161 3162 3163 3163 3163 3163 3163 3163 3162 3162 3163 3163 3163 3163 3164 3164 3164 3165 3166 3167 3168 3169 3169 3168 3170 3171 3171 3172 3172 3174 3175 3176 3176 3177
3149 3150 3150 3151 3152 3153 3154 3155 3156 3158 3159 3160 3161 3161 3162 3162 3162 3162 3162 3162 3162 3162 3162 3163 3163 3163 3164 3164 3165 3167 3168 3168 3167 3169 3170 3170 3170 3173 3174 3175 3175 3176 3177
3143 3148 3147 3148 3149 3150 3151 3152 3154 3155 3156 3157 3158 3159 3160 3161 3161 3161 3161 3161 3161 3161 3161 3161 3161 3162 3162 3163 3164 3165 3166 3167 3166 3167 3167 3168 3171 3171 3171 3173 3174 3175 3177
3141 3142 3145 3145 3146 3147 3148 3149 3151 3152 3153 3154 3155 3156 3157 3158 3159 3159 3160 3160 3159 3159 3160 3160 3160 3160 3160 3160 3161 3163 3164 3166 3165 3165 3165 3168 3167 3167 3170 3170 3174 3175 3177
3137 3138 3140 3141 3142 3143 3144 3145 3147 3148 3149 3151 3152 3153 3154 3155 3156 3157 3158 3158 3158 3158 3158 3158 3158 3158 3158 3159 3160 3161 3162 3163 3164 3163 3163 3162 3166 3167 3166 3167 3171 3174 3174
3132 3133 3134 3136 3138 3139 3140 3141 3142 3144 3145 3147 3149 3150 3151 3152 3153 3154 3155 3156 3156 3156 3156 3157 3156 3155 3156 3156 3158 3160 3160 3160 3161 3159 3161 3160 3161 3163 3161 3166 3169 3170 3171
3125 3128 3128 3130 3132 3133 3135 3136 3138 3140 3141 3143 3145 3147 3148 3149 3150 3152 3153 3153 3154 3154 3154 3154 3154 3153 3153 3153 3154 3156 3157 3159 3159 3158 3158 3160 3158 3161 3158 3162 3166 3167 3168
3119 3119 3123 3123 3125 3127 3129 3131 3132 3134 3136 3138 3141 3143 3144 3145 3147 3149 3150 3150 3151 3151 3151 3151 3152 3151 3150 3149 3151 3152 3153 3155 3156 3156 3155 3157 3157 3157 3158 3161 3164 3166 3166
3113 3113 3113 3115 3118 3121 3123 3124 3127 3129 3131 3134 3136 3138 3140 3142 3143 3145 3146 3147 3147 3148 3148 3148 3149 3148 3147 3147 3147 3148 3149 3150 3152 3153 3152 3153 3154 3156 3158 3159 3160 3161 3161
3108 3106 3107 3109 3112 3114 3115 3119 3120 3123 3125 3128 3130 3133 3135 3137 3138 3140 3141 3143 3143 3144 3144 3145 3145 3145 3145 3144 3144 3144 3145 3146 3147 3148 3148 3149 3150 3152 3152 3154 3155 3156 3156
3105 3101 3101 3101 3104 3107 3109 3112 3115 3117 3119 3122 3125 3127 3129 3131 3132 3134 3136 3137 3138 3139 3140 3140 3141 3142 3142 3141 3141 3140 3140 3141 3143 3144 3145 3145 3146 3147 3148 3149 3150 3149 3149
3100 3096 3095 3096 3099 3099 3102 3105 3108 3111 3113 3115 3117 3120 3123 3124 3126 3127 3129 3132 3133 3134 3135 3136 3137 3138 3138 3138 3137 3138 3137 3136 3137 3138 3140 3140 3141 3143 3143 3145 3144 3144 3143
3095 3092 3089 3089 3093 3095 3096 3098 3101 3104 3106 3109 3111 3112 3115 3118 3119 3120 3122 3123 3127 3129 3130 3130 3132 3133 3133 3133 3133 3133 3133 3132 3132 3132 3134 3134 3135 3138 3139 3139 3139 3139 3139
3085 3084 3085 3086 3087 3090 3090 3093 3095 3097 3099 3101 3104 3106 3108 3109 3111 3113 3116 3116 3119 3122 3123 3124 3125 3126 3128 3128 3129 3129 3129 3128 3128 3127 3128 3128 3129 3131 3134 3133 3134 3134 3134
3076 3074 3077 3082 3084 3084 3085 3086 3088 3090 3091 3094 3097 3098 3101 3102 3103 3106 3107 3109 3111 3113 3114 3117 3118 3118 3119 3120 3122 3123 3123 3123 3123 3123 3123 3123 3123 3124 3126 3128 3128 3128 3128
3068 3069 3074 3077 3078 3079 3080 3079 3080 3081 3084 3086 3087 3090 3092 3094 3096 3097 3099 3101 3102 3103 3103 3107 3110 3109 3112 3113 3113 3115 3117 3118 3118 3118 3118 3117 3117 3119 3120 3121 3121 3123 3123
3067 3069 3071 3070 3070 3071 3071 3072 3074 3075 3075 3078 3080 3082 3083 3084 3087 3089 3090 3091 3093 3094 3093 3094 3099 3101 3102 3106 3107 3107 3108 3109 3112 3114 3113 3113 3112 3113 3113 3115 3116 3116 3117
3066 3065 3063 3063 3063 3063 3063 3064 3065 3066 3068 3069 3070 3072 3075 3075 3076 3081 3080 3082 3085 3084 3086 3085 3086 3092 3095 3097 3100 3101 3100 3101 3103 3107 3107 3106 3107 3107 3107 3108 3109 3109 3110
3058 3059 3059 3058 3057 3057 3058 3058 3057 3057 3059 3060 3062 3062 3063 3065 3065 3067 3071 3072 3074 3075 3077 3076 3076 3081 3084 3089 3090 3093 3095 3094 3095 3099 3100 3101 3101 3101 3101 3101 3103 3104 3104
3053 3055 3054 3053 3052 3051 3051 3050 3049 3049 3049 3049 3050 3051 3052 3053 3054 3053 3053 3058 3061 3063 3066 3067 3068 3069 3044 3070 3081 3084 3089 3086 3090 3092 3094 3095 3095 3095 3094 3093 3095 3096 3096
3049 3050 3049 3047 3046 3045 3043 3042 3041 3040 3040 3041 3040 3040 3041 3042 3040 3040 3040 3042 3046 3049 3053 3056 3059 3055 3049 3066 3069 3070 3079 3080 3083 3084 3086 3089 3088 3088 3088 3087 3088 3089 3088
3044 3045 3044 3043 3040 3038 3036 3034 3033 3032 3030 3030 3031 3030 3030 3029 3028 3027 3026 3027 3032 3035 3040 3044 3044 3047 3049 3052 3059 3065 3070 3073 3075 3076 3077 3082 3081 3081 3080 3080 3081 3082 3082
3039 3041 3041 3039 3036 3033 3031 3028 3025 3023 3021 3020 3020 3018 3016 3014 3013 3013 3014 3013 3020 3023 3025 3028 3032 3035 3039 3045 3051 3052 3060 3063 3067 3066 3070 3074 3074 3073 3072 3073 3073 3075 3076